South Haven, MI

1:31 AM EDT on June 19, 2018 (GMT -0400)
South Haven

Weather History for KLWA - November, 2017

Change the Weather History Date:

Tuesday, November 21, 2017

  Actual Average (KBEH) Record (KBEH)
Temperature  
Mean Temperature 40 °F -  
Max Temperature 46 °F 45 °F 65 °F (1990)
Min Temperature 35 °F 30 °F 11 °F (1964)
Degree Days  
Heating Degree Days 24    
Moisture  
Dew Point 30 °F    
Average Humidity 63    
Maximum Humidity 82    
Minimum Humidity 51    
Precipitation  
Precipitation 0.00 in - - ()
Sea Level Pressure  
Sea Level Pressure 29.82 in    
Wind  
Wind Speed 14 mph (West)    
Max Wind Speed 21 mph    
Max Gust Speed 32 mph    
Visibility 10 miles    
Events Rain    
Averages and records for this station are not official NWS values.
T = Trace of Precipitation, MM = Missing Value Source: NWS Daily Summary

Daily Weather History Graph

Daily Weather History Graph

Search for Another Location

Airport or City:

Astronomy

Nov. 21, 2017 Rise Set
Actual Time 7:43 AM EST 5:18 PM EST
Civil Twilight 7:12 AM EST 5:48 PM EST
Nautical Twilight 6:38 AM EST 6:23 PM EST
Astronomical Twilight 6:04 AM EST 6:56 PM EST
Moon 10:16 AM EST (11/21) 7:59 PM EST (11/21)
Length of Visible Light 10h 36m
Length of Day
9h 34m
Waxing Crescent, 9% of the Moon is Illuminated
Nov 21
Waxing Crescent
Nov 26
First Quarter
Dec 3
Full
Dec 10
Last Quarter
Dec 18
New

Hourly Weather History & Observations

Time (EST) Temp. Windchill Dew Point Humidity Pressure Visibility Wind Dir Wind Speed Gust Speed Precip Events Conditions
12:17 AM 44.4 °F 37.2 °F 27.5 °F 52% 29.71 in 10.0 mi SSW 16.1 mph 25.3 mph N/A   Clear
12:37 AM 44.6 °F 38.1 °F 27.5 °F 51% 29.71 in 10.0 mi SSW 13.8 mph 26.5 mph N/A   Clear
12:57 AM 44.1 °F 37.7 °F 27.5 °F 52% 29.70 in 10.0 mi SSW 12.7 mph 21.9 mph N/A   Clear
1:17 AM 43.9 °F 37.2 °F 27.3 °F 52% 29.70 in 10.0 mi SSW 13.8 mph 21.9 mph N/A   Clear
1:37 AM 43.5 °F 37.5 °F 27.3 °F 53% 29.69 in 10.0 mi SSW 11.5 mph 18.4 mph N/A   Clear
1:57 AM 43.3 °F 37.7 °F 27.3 °F 53% 29.68 in 10.0 mi SSW 10.4 mph 19.6 mph N/A   Clear
2:16 AM 43.2 °F 37.4 °F 27.5 °F 54% 29.68 in 10.0 mi SSW 10.4 mph - N/A   Clear
2:37 AM 43.5 °F 36.7 °F 27.5 °F 53% 29.68 in 10.0 mi SSW 13.8 mph 23.0 mph N/A   Clear
2:57 AM 43.5 °F 36.7 °F 28.0 °F 54% 29.68 in 10.0 mi SSW 13.8 mph 18.4 mph N/A   Clear
3:16 AM 43.7 °F 37.7 °F 28.0 °F 54% 29.67 in 10.0 mi SSW 11.5 mph 19.6 mph N/A   Clear
3:57 AM 44.8 °F 39.0 °F 28.8 °F 53% 29.66 in 10.0 mi SSW 11.5 mph 21.9 mph N/A   Clear
4:16 AM 45.5 °F 38.9 °F 29.1 °F 53% 29.65 in 10.0 mi SW 15.0 mph 27.6 mph N/A   Clear
4:37 AM 46.0 °F 38.3 °F 29.3 °F 52% 29.65 in 10.0 mi SW 20.7 mph 29.9 mph N/A   Clear
4:57 AM 45.9 °F 38.5 °F 30.6 °F 55% 29.66 in 10.0 mi SW 18.4 mph 32.2 mph N/A   Clear
5:17 AM 45.9 °F 38.5 °F 31.3 °F 57% 29.66 in 10.0 mi SW 18.4 mph 29.9 mph N/A   Clear
5:37 AM 45.9 °F 38.5 °F 32.0 °F 58% 29.66 in 10.0 mi SW 18.4 mph 27.6 mph N/A   Scattered Clouds
5:57 AM 46.2 °F 39.0 °F 34.2 °F 63% 29.66 in 10.0 mi SW 18.4 mph 25.3 mph N/A   Clear
6:17 AM 46.4 °F 39.2 °F 34.5 °F 63% 29.67 in 10.0 mi SW 18.4 mph 28.8 mph N/A   Clear
6:37 AM 45.9 °F 38.8 °F 35.1 °F 66% 29.66 in 10.0 mi SW 17.3 mph 26.5 mph N/A   Clear
6:57 AM 45.7 °F 38.8 °F 35.6 °F 68% 29.65 in 10.0 mi SW 16.1 mph 26.5 mph N/A   Clear
7:17 AM 45.5 °F 38.3 °F 34.9 °F 66% 29.65 in 10.0 mi SW 17.3 mph 26.5 mph N/A   Clear
7:37 AM 45.3 °F 37.8 °F 34.7 °F 66% 29.65 in 10.0 mi SW 18.4 mph 24.2 mph N/A   Clear
7:57 AM 45.0 °F 38.2 °F 34.3 °F 66% 29.66 in 10.0 mi SW 15.0 mph 21.9 mph N/A   Clear
8:17 AM 45.5 °F 38.6 °F 34.0 °F 64% 29.67 in 10.0 mi SW 16.1 mph 23.0 mph N/A   Clear
8:37 AM 45.9 °F 39.7 °F 33.8 °F 63% 29.67 in 10.0 mi SW 13.8 mph 24.2 mph N/A   Clear
8:57 AM 45.9 °F 38.3 °F 33.8 °F 63% 29.67 in 10.0 mi SW 19.6 mph 26.5 mph N/A   Mostly Cloudy
9:17 AM 45.9 °F 39.1 °F 34.5 °F 65% 29.69 in 10.0 mi SW 16.1 mph 29.9 mph N/A   Overcast
9:37 AM 46.0 °F 39.0 °F 35.8 °F 67% 29.70 in 10.0 mi SW 17.3 mph 28.8 mph N/A   Scattered Clouds
9:57 AM 46.4 °F 39.8 °F 36.5 °F 68% 29.71 in 10.0 mi SW 16.1 mph 24.2 mph N/A   Scattered Clouds
10:17 AM 46.6 °F - 36.5 °F 68% 29.71 in 10.0 mi SW 17.3 mph 26.5 mph N/A   Overcast
10:37 AM 46.4 °F 40.1 °F 36.9 °F 69% 29.75 in 10.0 mi WSW 15.0 mph 25.3 mph N/A   Overcast
10:57 AM 46.4 °F 39.8 °F 37.2 °F 70% 29.76 in 10.0 mi WSW 16.1 mph 23.0 mph N/A   Overcast
11:17 AM 45.5 °F 40.3 °F 38.8 °F 78% 29.76 in 10.0 mi WSW 10.4 mph 23.0 mph N/A Rain Light Rain
11:37 AM 45.5 °F 38.9 °F 39.2 °F 79% 29.78 in 10.0 mi West 15.0 mph 19.6 mph N/A Rain Light Rain
11:57 AM 43.5 °F 37.5 °F 36.5 °F 76% 29.79 in 5.0 mi West 11.5 mph 27.6 mph N/A Rain Light Rain
12:17 PM 42.3 °F 36.3 °F 36.0 °F 78% 29.79 in 4.0 mi West 10.4 mph 26.5 mph N/A Rain Light Rain
12:37 PM 41.9 °F 37.5 °F 36.7 °F 82% 29.79 in 3.0 mi WNW 6.9 mph 17.3 mph N/A   Overcast
12:57 PM 42.1 °F 34.5 °F 35.8 °F 78% 29.79 in 7.0 mi West 15.0 mph 24.2 mph N/A Rain Light Rain
1:17 PM 41.5 °F 35.9 °F 35.6 °F 79% 29.79 in 5.0 mi West 9.2 mph 18.4 mph N/A Rain Light Rain
1:37 PM 41.0 °F 34.7 °F 35.2 °F 80% 29.79 in 7.0 mi West 10.4 mph - N/A Rain Rain
1:57 PM 41.5 °F 37.8 °F 35.2 °F 78% 29.79 in 10.0 mi West 5.8 mph - N/A   Overcast
2:17 PM 42.8 °F 37.0 °F 32.0 °F 66% 29.80 in 10.0 mi NW 10.4 mph 16.1 mph N/A   Overcast
2:37 PM 42.8 °F 37.0 °F 28.9 °F 58% 29.81 in 10.0 mi NW 10.4 mph 18.4 mph N/A   Overcast
2:57 PM 41.5 °F 33.8 °F 28.4 °F 60% 29.84 in 10.0 mi NW 15.0 mph 21.9 mph N/A   Overcast
3:17 PM 41.0 °F 32.2 °F 28.9 °F 62% 29.85 in 10.0 mi NW 18.4 mph 25.3 mph N/A   Overcast
3:37 PM 40.3 °F 33.4 °F 28.0 °F 62% 29.86 in 10.0 mi NW 11.5 mph 19.6 mph N/A   Overcast
3:57 PM 39.4 °F 30.7 °F 26.4 °F 60% 29.89 in 10.0 mi NW 16.1 mph 19.6 mph N/A   Mostly Cloudy
4:17 PM 39.2 °F 30.8 °F 27.9 °F 64% 29.91 in 10.0 mi NW 15.0 mph 20.7 mph N/A   Mostly Cloudy
4:37 PM 37.9 °F 30.0 °F 27.1 °F 65% 29.92 in 10.0 mi NNW 12.7 mph 23.0 mph N/A   Mostly Cloudy
4:57 PM 37.6 °F 29.6 °F 25.9 °F 63% 29.94 in 10.0 mi NW 12.7 mph 18.4 mph N/A   Overcast
5:17 PM 37.4 °F 29.8 °F 25.0 °F 61% 29.95 in 10.0 mi NW 11.5 mph 20.7 mph N/A   Overcast
5:37 PM 37.2 °F 28.3 °F 24.3 °F 60% 29.97 in 10.0 mi NNW 15.0 mph 23.0 mph N/A   Overcast
6:17 PM 36.9 °F 28.2 °F 24.1 °F 60% 29.99 in 10.0 mi NW 13.8 mph 23.0 mph N/A   Overcast
6:37 PM 37.0 °F 28.1 °F 24.8 °F 61% 30.01 in 10.0 mi NW 15.0 mph 21.9 mph N/A   Overcast
6:57 PM 37.0 °F 30.4 °F 24.4 °F 60% 30.02 in 10.0 mi NW 9.2 mph 20.7 mph N/A   Overcast
7:17 PM 36.9 °F 27.1 °F 24.6 °F 61% 30.03 in 10.0 mi NNW 17.3 mph 23.0 mph N/A   Overcast
7:37 PM 36.5 °F 27.4 °F 24.3 °F 61% 30.04 in 10.0 mi NW 15.0 mph 26.5 mph N/A   Overcast
7:57 PM 36.5 °F 28.2 °F 23.5 °F 59% 30.05 in 10.0 mi NW 12.7 mph 21.9 mph N/A   Overcast
8:17 PM 36.5 °F 27.8 °F 23.7 °F 60% 30.06 in 10.0 mi NW 13.8 mph 20.7 mph N/A   Overcast
8:37 PM 35.6 °F 25.5 °F 22.8 °F 60% 30.07 in 10.0 mi NNW 17.3 mph 25.3 mph N/A   Overcast
8:56 PM 35.6 °F 28.6 °F 22.6 °F 59% 30.07 in 10.0 mi NW 9.2 mph 17.3 mph N/A   Overcast
9:17 PM 36.0 °F 28.0 °F 22.3 °F 58% 30.07 in 10.0 mi NNW 11.5 mph 19.6 mph N/A   Overcast
9:37 PM 35.6 °F 27.5 °F 22.1 °F 58% 30.07 in 10.0 mi NNW 11.5 mph 19.6 mph N/A   Overcast
9:57 PM 35.6 °F 27.1 °F 21.9 °F 58% 30.08 in 10.0 mi NNW 12.7 mph 18.4 mph N/A   Overcast
10:17 PM 35.6 °F 27.5 °F 22.5 °F 59% 30.09 in 10.0 mi NNW 11.5 mph 19.6 mph N/A   Overcast
10:37 PM 35.6 °F 28.6 °F 22.1 °F 58% 30.09 in 10.0 mi NW 9.2 mph 19.6 mph N/A   Overcast
10:57 PM 35.6 °F 28.0 °F 23.0 °F 60% 30.10 in 10.0 mi NNW 10.4 mph 18.4 mph N/A   Overcast
11:17 PM 35.6 °F 26.6 °F 23.7 °F 62% 30.10 in 10.0 mi NNW 13.8 mph 19.6 mph N/A   Overcast
11:37 PM 35.6 °F 27.5 °F 23.5 °F 62% 30.11 in 10.0 mi NNW 11.5 mph 18.4 mph N/A   Overcast
11:57 PM 35.6 °F 29.2 °F 23.5 °F 62% 30.11 in 10.0 mi NNW 8.1 mph 21.9 mph N/A   Overcast